Regional Weather Roundup
Issued by NWS

Home | Current Version | Previous Version | Text Only | Print | Product List | Glossary On
Versions: 1 2 3 4 5 6 7 8 9 10 11 12 13 14 15 16 17 18 19 20 21 22 23 24 25 26 27 28 29 30 31 32 33 34 35 36 37 38 39 40 41 42 43 44 45 46 47 48 49 50
000
ASCA42 TJSJ 220911
RWRPR
PUERTO RICO/U.S. VIRGIN ISLANDS HOURLY WEATHER ROUNDUP
NATIONAL WEATHER SERVICE SAN JUAN PR
500 AM AST WED OCT 22 2014

PRZ001-004-221000-
PUERTO RICO

CITY           SKY/WX    TMP DP  RH WIND       PRES   REMARKS
SAN JUAN LMM   PTCLDY    79  73  83 CALM      29.93S
PONCE          PTCLDY    75  72  88 CALM      29.91
CEIBA          MOCLDY    75  73  94 CALM      29.96R
$$

PRZ006-007-221000-
U.S. VIRGIN ISLANDS

CITY           SKY/WX    TMP DP  RH WIND       PRES   REMARKS
CHRISTIANSTED  CLEAR     75  72  88 N6        29.94R
$$

HOURLY WEATHER ROUNDUP FOR THE NEWS MEDIA

CITY           SKY/WX    TMP DP  RH WIND       PRES   REMARKS
MIAMI          CLOUDY    75  71  87 CALM      29.92R
ORLANDO        MOCLDY    72  70  93 NW6       29.94R FOG
NEW YORK       TSTM      57  53  86 N17       29.88S
NEWARK         TSTM      57  55  94 NE16G25   29.88R FOG
CHICAGO        CLOUDY    46  39  76 N5        30.28R
HARTFORD       CLOUDY    53  52  96 VRB7      29.92S
BOSTON         CLOUDY    52  49  89 N13       29.98R
DALLAS         CLEAR     64  59  83 SE5       30.07S
PHILADELPHIA   CLOUDY    57  50  77 N13G24    29.84S



USA.gov is the U.S. government's official web portal to all federal, state and local government web resources and services.